C/2023 U1 ( Fuls )

Japanese version
Home page
Updated on March 23, 2025

---------------------------------------------------------------------

* Profile

Discovery Date October 16, 2023
Magnitude 19.3 mag
Discoverer David Carson Fuls (Mt. Lemmon Survey)

* Pictures

* Orbital Elements

Epoch 2025 May 5.0 TT = JDT 2460800.5
T 2024 Oct. 12.89547 TT                                 Pike
q   4.9730261            (2000.0)            P               Q
z  +0.0003952      Peri.  255.64157     +0.09961004     +0.62938747
 +/-0.0000017      Node   305.80479     +0.71265375     -0.58565668
e   0.9980347      Incl.  108.14574     -0.69440800     -0.51076185
From 350 observations 2023 Jan. 14-2025 Feb. 22, mean residual 0".5.

* Magnitudes Graph

        m1 = 0.0 + 5 log d + 20.0 log r(t - 100)

---------------------------------------------------------------------

The orbital elements are published on M.P.E.C. 2025-D254.
The magnitudes graphs are made with Comet for Windows.

---------------------------------------------------------------------

Copyright(C) Seiichi Yoshida (comet@aerith.net). All rights reserved.